Погода в Новодвинске

Россия / Архангельская область     64°24′49″N   40°49′14″E
темп.,
°C
ветер,
м/с
пор.,
м/с
влажн.,
%
обл.,
%
осадки,
мм/ч
давл.,
гПа
погр.,
м
8 августа, пн
пн800:00+14юз31070100 0.0 1015477
03:00+11юз38865 0.0 1016208
06:00+13юз39776 0.0 1017304
09:00+17зюз47535 0.0 10181449
12:00+18зюз4746100 0.1 10192296
15:00+16зюз375669 0.1 1020376
18:00+16сз1163100 0.0 102123
21:00+13ююз117496 0.0 102212
9 августа, вт
вт900:00+11юз237755 0.0 102364
03:00+12юз1171100 0.0 102316
06:00+13юз1171100 0.0 102430
09:00+15юз1168100 0.0 1025148
12:00+18з125365 0.0 1025788
15:00+20зсз224087 0.0 10242268
18:00+18зсз33556 0.0 1025998
21:00+13ссз237495 0.0 102578
10 августа, ср
ср1000:00+13ссз1169100 0.0 102512
03:00+13зюз0070100 0.0 102411
06:00+13з1174100 0.0 102437
09:00+15юз1269100 0.0 1024230
12:00+21ююз234417 0.0 10221705
15:00+18ю2358100 0.0 1021126
18:00+18ю116699 0.0 102016
21:00+14ю22805 0.0 101911
11 августа, чт
чт1100:00+12ююз2676100 0.0 1018107
03:00+11ююз2783100 0.0 1017131
06:00+14юз31170100 0.0 1015335
09:00+15юз4117297 0.0 1014668
12:00+19з51064100 0.1 10131297
15:00+18ю2475100 0.2 1011168
18:00+19зюз61266100 0.2 10091412
21:00+16зюз51493100 1.9 1008798
12 августа, пт
пт1200:00+16зюз41095100 3.4 1007427
03:00+14зюз4119812 3.8 1008400
06:00+13зюз41095100 0.1 1009528
09:00+14з3988100 0.1 1010703
12:00+16зсз587486 0.4 10111052
15:00+17зсз6135367 1.0 10131912
18:00+16зсз4125925 0.0 10151444
21:00+11зюз227967 0.0 101630